Regional Weather Roundup
Issued by NWS

Home | Current Version | Previous Version | Graphics & Text | Print | Product List | Glossary On
Versions: 1 2 3 4 5 6 7 8 9 10 11 12 13 14 15 16 17 18 19 20 21 22 23 24 25 26 27 28 29 30 31 32 33 34 35 36 37 38 39 40 41 42 43 44 45 46 47 48 49 50
000
ASUS43 KFSD 161702
RWRSD

WEATHER ROUNDUP FOR SOUTH DAKOTA
NATIONAL WEATHER SERVICE SIOUX FALLS SD
1100 AM CST MON JAN 16 2017

NOTE: "FAIR" INDICATES FEW OR NO CLOUDS BELOW 12,000 FEET WITH NO
SIGNIFICANT WEATHER AND/OR OBSTRUCTIONS TO VISIBILITY.


SDZ001>005-009-010-012>017-161800-
NORTHWEST AND NORTH CENTRAL SOUTH DAKOTA

CITY           SKY/WX    TMP DP  RH WIND       PRES   REMARKS
BUFFALO          N/A     15   6  67 W8        30.03R WCI   4
FAITH            N/A     16   8  71 NW16      30.09R WCI   1
MOBRIDGE       CLOUDY     6  -3  66 CALM      30.08S
$$

SDZ012>016-024>037-041>051-057-063-072>074-161800-
SOUTHWEST AND SOUTH CENTRAL SOUTH DAKOTA

CITY           SKY/WX    TMP DP  RH WIND       PRES   REMARKS
RAPID CTY ARPT CLOUDY    31  16  54 N10       30.09R WCI  22
PIERRE         CLOUDY    12   7  80 W6        30.11R WCI   3
CUSTER         SUNNY     36   4  26 CALM      30.06R
ELLSWORTH AFB  CLOUDY    32  14  48 NW12      30.09R WCI  23
PHILIP         CLOUDY    18  10  71 W9        30.11S WCI   7
PINE RIDGE     CLOUDY    21  17  84 CALM      30.11R
SPEARFISH      FAIR      30  12  47 W8        30.12S WCI  23
WINNER         PTSUNNY   26  18  71 NW9       30.07F WCI  17
$$

SDZ004>011-016>023-039-040-161800-
NORTHEAST SOUTH DAKOTA

CITY           SKY/WX    TMP DP  RH WIND       PRES   REMARKS
ABERDEEN       CLOUDY     8   2  76 W3        30.10S
WATERTOWN      CLOUDY    13   9  84 CALM      30.06R FOG
BROOKINGS      CLOUDY    24  18  77 CALM      30.06S
SISSETON         N/A     19  16  88 CALM      30.07S
$$

SDZ017-020-022-023-036>040-048>070-161800-
SOUTHEAST SOUTH DAKOTA

CITY           SKY/WX    TMP DP  RH WIND       PRES   REMARKS
SIOUX FALLS    CLOUDY    27  22  81 N6        30.06F WCI  20
HURON          CLOUDY    15   9  76 NW3       30.09S
CHAMBERLAIN    CLOUDY    21  15  77 W7        30.09R WCI  12
MITCHELL       CLOUDY    23  17  78 N8        30.10R WCI  14
YANKTON        CLOUDY    30  27  86 NE8       30.05S WCI  23
$$

ABBREVIATIONS USED IN REMARKS
   TC - TEMPERATURE IN CELSIUS
  WCI - WIND CHILL INDEX
   HX - HEAT INDEX
  VSB - VISIBILITY




USA.gov is the U.S. government's official web portal to all federal, state and local government web resources and services.